Погода в Раухе

Финляндия     61°10′00″N   28°40′42″E
темп.,
°C
ветер,
м/с
пор.,
м/с
влажн.,
%
обл.,
%
осадки,
мм/ч
давл.,
гПа
погр.,
м
3 марта, ср
ср323:00−2зсз511910 0.0 1017300
02:00−3зсз613920 0.0 1017338
05:00−3зсз6129431 0.0 1014295
08:00−4з5129635 0.0 1013290
11:00−1з7138876 0.0 1010547
14:00+1з7158687 0.0 1007884
17:00+1з71487100 0.2 1004778
20:00−2зсз61483100 0.3 1004529
4 марта, чт
чт423:00−5сз5128222 0.0 1003330
02:00−6зсз5108811 0.0 1004221
05:00−7сз49940 0.0 1003190
08:00−8ссз489431 0.0 1004266
11:00−5ссз488792 0.0 1004593
14:00−5ссз598396 0.1 1005716
17:00−6сз498299 0.0 1005373
20:00−7ссз498984 0.1 1006367
5 марта, пт
пт523:00−9сз489056 0.0 1007256
02:00−10сз489140 0.0 1008207
05:00−11сз479422 0.0 1009201
08:00−10ссз479157 0.0 1010346
11:00−7с357873 0.0 1012363
14:00−7зсз467345 0.0 1014528
17:00−8сз488866 0.0 1014294
20:00−9ссз359266 0.1 101683
6 марта, сб
сб623:00−10сз34930 0.0 101773
02:00−11зсз34930 0.0 101777
05:00−11з34940 0.0 101667
08:00−10юз489012 0.0 1013183
11:00−5ююз61283100 0.0 1009547
14:00−3ююз91594100 1.9 10021010
17:00−2юз81594100 2.3 995800
20:00−1зюз81597100 3.4 990698
7 марта, вс
вс723:00−2з8158299 1.1 9881037
02:00−8зсз10176584 0.9 9841259
05:00−11з8166691 0.0 983775
08:00−9з9149395 1.0 982887
11:00−6с81284100 0.8 986885
14:00−7с91481100 0.9 9911061
17:00−8с81487100 0.2 9971051
20:00−11с81481100 0.4 1002882